• In Russia
  • List of Countries
  • For 7 days
  • Water Temperature
  • Satellite Maps
  • Weather Map
  • Weather Widgets
  • user-avatar
    Login

    Hourly Weather Podlesnyy Utyamysh

    Today, 19 June, Tuesday

    Time Temperature Precipitation Wind Pressure Humidity
    00:00 +13°C° 0 mm 1 mps 739 mmHg 86%
    01:00 +13°C° 0 mm 1 mps 739 mmHg 86%
    02:00 +13°C° 0 mm 1 mps 739 mmHg 86%
    03:00 +12°C° 0 mm 1 mps 739 mmHg 85%
    04:00 +14°C° 0 mm 1 mps 739 mmHg 83%
    05:00 +15°C° 0 mm 2 mps 739 mmHg 80%
    06:00 +17°C° 0 mm 2 mps 739 mmHg 78%
    07:00 +18°C° 0 mm 2 mps 739 mmHg 74%
    08:00 +20°C° 0 mm 3 mps 739 mmHg 71%
    09:00 +22°C° 0 mm 3 mps 739 mmHg 68%
    10:00 +24°C° 0 mm 3 mps 739 mmHg 63%
    11:00 +25°C° 0 mm 4 mps 739 mmHg 58%
    12:00 +26°C° 0 mm 4 mps 739 mmHg 53%
    13:00 +26°C° 0 mm 4 mps 739 mmHg 57%
    14:00 +26°C° 0 mm 4 mps 739 mmHg 60%
    15:00 +25°C° 0 mm 3 mps 739 mmHg 63%
    16:00 +25°C° 0.3 mm 3 mps 739 mmHg 67%
    17:00 +24°C° 0.3 mm 3 mps 739 mmHg 72%
    18:00 +22°C° 0.3 mm 3 mps 738 mmHg 76%
    19:00 +20°C° 0 mm 3 mps 738 mmHg 79%
    20:00 +19°C° 0 mm 3 mps 738 mmHg 83%
    21:00 +17°C° 0 mm 3 mps 738 mmHg 86%
    22:00 +17°C° 0 mm 2 mps 738 mmHg 87%
    23:00 +16°C° 0 mm 2 mps 738 mmHg 87%

    Tomorrow, 20 June, Wednesday

    Time Temperature Precipitation Wind Pressure Humidity
    00:00 +16°C° 0 mm 2 mps 738 mmHg 88%
    01:00 +16°C° 0 mm 2 mps 738 mmHg 88%
    02:00 +15°C° 0 mm 2 mps 738 mmHg 87%
    03:00 +14°C° 0 mm 3 mps 738 mmHg 87%
    04:00 +16°C° 0 mm 3 mps 737 mmHg 86%
    05:00 +17°C° 0 mm 3 mps 737 mmHg 84%
    06:00 +19°C° 0 mm 4 mps 737 mmHg 83%
    07:00 +20°C° 0.4 mm 5 mps 737 mmHg 80%
    08:00 +21°C° 0.4 mm 6 mps 736 mmHg 77%
    09:00 +23°C° 0.4 mm 7 mps 736 mmHg 73%
    10:00 +23°C° 0.3 mm 7 mps 735 mmHg 73%
    11:00 +23°C° 0.3 mm 8 mps 735 mmHg 73%
    12:00 +23°C° 0.3 mm 8 mps 734 mmHg 73%
    13:00 +22°C° 1.2 mm 8 mps 734 mmHg 77%
    14:00 +22°C° 1.2 mm 8 mps 734 mmHg 80%
    15:00 +21°C° 1.2 mm 8 mps 733 mmHg 84%
    16:00 +20°C° 0.6 mm 7 mps 733 mmHg 84%
    17:00 +19°C° 0.6 mm 6 mps 734 mmHg 84%
    18:00 +17°C° 0.6 mm 5 mps 734 mmHg 83%
    19:00 +16°C° 0 mm 5 mps 734 mmHg 83%
    20:00 +15°C° 0 mm 5 mps 735 mmHg 82%
    21:00 +13°C° 0 mm 4 mps 735 mmHg 81%
    22:00 +12°C° 0 mm 4 mps 735 mmHg 82%
    23:00 +12°C° 0 mm 4 mps 736 mmHg 83%

    Day after tomorrow, 21 June, Thursday

    Time Temperature Precipitation Wind Pressure Humidity
    00:00 +11°C° 0 mm 4 mps 736 mmHg 84%
    01:00 +11°C° 0 mm 4 mps 736 mmHg 84%
    02:00 +10°C° 0 mm 4 mps 736 mmHg 85%
    03:00 +10°C° 0 mm 4 mps 736 mmHg 85%
    04:00 +10°C° 0 mm 5 mps 736 mmHg 83%
    05:00 +12°C° 0 mm 5 mps 736 mmHg 81%
    06:00 +13°C° 0 mm 6 mps 736 mmHg 78%
    07:00 +14°C° 0 mm 7 mps 736 mmHg 73%
    08:00 +16°C° 0 mm 8 mps 736 mmHg 68%
    09:00 +17°C° 0 mm 9 mps 736 mmHg 62%
    10:00 +17°C° 0 mm 9 mps 736 mmHg 61%
    11:00 +18°C° 0 mm 9 mps 736 mmHg 60%
    12:00 +18°C° 0 mm 10 mps 735 mmHg 59%
    13:00 +18°C° 0 mm 9 mps 736 mmHg 59%
    14:00 +18°C° 0 mm 9 mps 736 mmHg 60%
    15:00 +18°C° 0 mm 9 mps 736 mmHg 61%
    16:00 +18°C° 0 mm 8 mps 736 mmHg 65%
    17:00 +17°C° 0 mm 7 mps 736 mmHg 69%
    18:00 +17°C° 0 mm 5 mps 736 mmHg 73%
    19:00 +16°C° 0 mm 5 mps 737 mmHg 73%
    20:00 +15°C° 0 mm 5 mps 737 mmHg 73%
    21:00 +14°C° 0 mm 5 mps 737 mmHg 73%
    22:00 +13°C° 0 mm 5 mps 737 mmHg 74%
    23:00 +12°C° 0 mm 5 mps 738 mmHg 76%

    22 June, Friday

    Time Temperature Precipitation Wind Pressure Humidity
    00:00 +12°C° 0 mm 4 mps 738 mmHg 77%
    01:00 +11°C° 0 mm 4 mps 738 mmHg 78%
    02:00 +11°C° 0 mm 4 mps 738 mmHg 79%
    03:00 +10°C° 0 mm 4 mps 739 mmHg 80%
    04:00 +11°C° 0 mm 4 mps 739 mmHg 79%
    05:00 +12°C° 0 mm 4 mps 739 mmHg 78%
    06:00 +13°C° 0 mm 4 mps 740 mmHg 77%
    07:00 +15°C° 0 mm 4 mps 740 mmHg 73%
    08:00 +17°C° 0 mm 5 mps 740 mmHg 69%
    09:00 +19°C° 0 mm 5 mps 741 mmHg 65%
    10:00 +20°C° 0 mm 5 mps 741 mmHg 62%
    11:00 +21°C° 0 mm 5 mps 741 mmHg 60%
    12:00 +22°C° 0 mm 5 mps 741 mmHg 57%
    13:00 +22°C° 0 mm 5 mps 741 mmHg 58%
    14:00 +22°C° 0 mm 5 mps 741 mmHg 59%
    15:00 +22°C° 0 mm 5 mps 741 mmHg 60%
    16:00 +22°C° 0 mm 4 mps 741 mmHg 65%
    17:00 +22°C° 0 mm 3 mps 741 mmHg 70%
    18:00 +21°C° 0 mm 2 mps 741 mmHg 75%
    19:00 +20°C° 0 mm 2 mps 741 mmHg 79%
    20:00 +18°C° 0 mm 2 mps 741 mmHg 83%
    21:00 +16°C° 0 mm 1 mps 741 mmHg 88%
    22:00 +16°C° 0 mm 1 mps 741 mmHg 89%
    23:00 +16°C° 0 mm 1 mps 742 mmHg 89%

    23 June, Saturday

    Time Temperature Precipitation Wind Pressure Humidity
    00:00 +16°C° 0 mm 1 mps 742 mmHg 90%
    01:00 +16°C° 0 mm 1 mps 742 mmHg 91%
    02:00 +15°C° 0 mm 1 mps 742 mmHg 92%
    03:00 +15°C° 0 mm 2 mps 742 mmHg 93%
    04:00 +17°C° 0 mm 2 mps 742 mmHg 91%
    05:00 +18°C° 0 mm 2 mps 742 mmHg 89%
    06:00 +19°C° 0 mm 2 mps 742 mmHg 87%
    07:00 +21°C° 0 mm 2 mps 742 mmHg 83%
    08:00 +23°C° 0 mm 2 mps 743 mmHg 78%
    09:00 +25°C° 0 mm 3 mps 743 mmHg 73%
    10:00 +26°C° 0 mm 3 mps 743 mmHg 70%
    11:00 +27°C° 0 mm 3 mps 743 mmHg 66%
    12:00 +27°C° 0 mm 3 mps 743 mmHg 62%
    13:00 +28°C° 0 mm 3 mps 742 mmHg 61%
    14:00 +28°C° 0 mm 3 mps 742 mmHg 61%
    15:00 +28°C° 0 mm 3 mps 742 mmHg 60%
    16:00 +28°C° 0 mm 3 mps 742 mmHg 64%
    17:00 +27°C° 0 mm 2 mps 742 mmHg 68%
    18:00 +27°C° 0 mm 2 mps 742 mmHg 72%
    19:00 +25°C° 0 mm 1 mps 742 mmHg 76%
    20:00 +23°C° 0 mm 1 mps 742 mmHg 80%
    21:00 +21°C° 0 mm 1 mps 742 mmHg 84%
    22:00 +20°C° 0 mm 1 mps 742 mmHg 85%
    23:00 +20°C° 0 mm 1 mps 742 mmHg 86%

    24 June, Sunday

    Time Temperature Precipitation Wind Pressure Humidity
    00:00 +19°C° 0 mm 1 mps 742 mmHg 87%
    01:00 +19°C° 0 mm 1 mps 742 mmHg 87%
    02:00 +19°C° 0 mm 1 mps 742 mmHg 88%
    03:00 +18°C° 0 mm 1 mps 742 mmHg 88%
    04:00 +20°C° 0 mm 1 mps 742 mmHg 86%
    05:00 +20°C° 0 mm 2 mps 743 mmHg 84%
    06:00 +21°C° 0 mm 2 mps 743 mmHg 81%
    07:00 +24°C° 0 mm 2 mps 743 mmHg 77%
    08:00 +25°C° 0 mm 3 mps 743 mmHg 72%
    09:00 +27°C° 0 mm 3 mps 743 mmHg 68%
    10:00 +28°C° 0 mm 3 mps 743 mmHg 64%
    11:00 +28°C° 0 mm 4 mps 743 mmHg 61%
    12:00 +29°C° 0 mm 4 mps 743 mmHg 58%
    13:00 +29°C° 0.1 mm 4 mps 743 mmHg 59%
    14:00 +29°C° 0.1 mm 4 mps 743 mmHg 59%
    15:00 +29°C° 0.1 mm 4 mps 742 mmHg 60%
    16:00 +28°C° 0 mm 4 mps 742 mmHg 64%
    17:00 +28°C° 0 mm 3 mps 742 mmHg 68%
    18:00 +27°C° 0 mm 2 mps 742 mmHg 72%
    19:00 +26°C° 0 mm 2 mps 742 mmHg 74%
    20:00 +24°C° 0 mm 2 mps 742 mmHg 76%
    21:00 +21°C° 0 mm 2 mps 742 mmHg 79%
    22:00 +21°C° 0 mm 2 mps 742 mmHg 78%
    23:00 +20°C° 0 mm 2 mps 742 mmHg 78%
    Show more